Weather History for KPSP - June, 2012

Change the Weather History Date:

Sunday, June 24, 2012

  Actual Average Record
Temperature  
Mean Temperature 88 °F 89 °F  
Max Temperature 105 °F 104 °F 121 °F (1957)
Min Temperature 70 °F 73 °F 52 °F (1944)
Degree Days  
Heating Degree Days 0 0  
Month to date heating degree days 0 0  
Since 1 June heating degree days 0 0  
Since 1 July heating degree days 771 874  
Cooling Degree Days 23 24  
Month to date cooling degree days 551 499  
Year to date cooling degree days 1490 1258  
Since 1 June cooling degree days 551 499  
Growing Degree Days 38 (Base 50)    
Moisture  
Dew Point 44 °F    
Average Humidity 30    
Maximum Humidity 49    
Minimum Humidity 10    
Precipitation  
Precipitation 0.00 in 0.00 in 0.00 in (2015)
Month to date precipitation 0.00 0.04  
Year to date precipitation 0.79 2.92  
Since 1 July precipitation 2.27 5.72  
Snow  
Snow 0.00 in - - ()
Month to date snowfall 0.0  
Year to date snowfall 0.0  
Since 1 July snowfall 0.0  
Snow Depth 0.00 in    
Sea Level Pressure  
Sea Level Pressure 29.76 in    
Wind  
Wind Speed 5 mph (SW)    
Max Wind Speed 15 mph    
Max Gust Speed 21 mph    
Visibility 10 miles    
Events      
T = Trace of Precipitation, MM = Missing Value Source: NWS Daily Summary

Daily Weather History Graph

Daily Weather History Graph

Search for Another Location

Airport or City:

Trip Planner

Search our weather history database for the weather conditions in past years. The results will help you decide how hot, cold, wet, or windy it might be!

Date:

Astronomy

Jun. 24, 2012 Rise Set
Actual Time 5:36 AM PDT 8:00 PM PDT
Civil Twilight 5:07 AM PDT 8:29 PM PDT
Nautical Twilight 4:31 AM PDT 9:05 PM PDT
Astronomical Twilight 3:52 AM PDT 9:44 PM PDT
Moon 10:32 AM PDT (6/24) 11:17 PM PDT (6/24)
Length of Visible Light 15h 22m
Length of Day
14h 24m
Waxing Crescent, 25% of the Moon is Illuminated
Jun 24
Waxing Crescent
Jun 26
First Quarter
Jul 3
Full
Jul 10
Last Quarter
Jul 18
New

Hourly Weather History & Observations

Time (PDT) Temp. Dew Point Humidity Pressure Visibility Wind Dir Wind Speed Gust Speed Precip Events Conditions
12:53 AM 81.0 °F 43.0 °F 26% 29.70 in 10.0 mi South 3.5 mph - N/A   Clear
1:53 AM 79.0 °F 43.0 °F 28% 29.71 in 10.0 mi Calm Calm - N/A   Clear
2:53 AM 75.0 °F 48.9 °F 40% 29.71 in 10.0 mi SE 3.5 mph - N/A   Clear
3:53 AM 73.0 °F 50.0 °F 44% 29.73 in 10.0 mi Calm Calm - N/A   Clear
4:53 AM 71.1 °F 51.1 °F 49% 29.75 in 10.0 mi South 3.5 mph - N/A   Clear
5:53 AM 72.0 °F 51.1 °F 48% 29.77 in 10.0 mi Calm Calm - N/A   Clear
6:53 AM 75.0 °F 48.9 °F 40% 29.80 in 10.0 mi Calm Calm - N/A   Clear
7:53 AM 78.1 °F 50.0 °F 37% 29.81 in 10.0 mi SSE 3.5 mph - N/A   Clear
8:53 AM 86.0 °F 41.0 °F 20% 29.83 in 10.0 mi SE 5.8 mph - N/A   Clear
9:53 AM 89.1 °F 39.9 °F 18% 29.83 in 10.0 mi ESE 3.5 mph - N/A   Clear
10:53 AM 91.9 °F 42.1 °F 18% 29.82 in 10.0 mi SSE 9.2 mph - N/A   Clear
11:53 AM 95.0 °F 37.9 °F 14% 29.81 in 10.0 mi East 8.1 mph - N/A   Clear
12:53 PM 97.0 °F 37.0 °F 12% 29.80 in 10.0 mi Calm Calm - N/A   Clear
1:53 PM 99.0 °F 36.0 °F 11% 29.77 in 10.0 mi West 6.9 mph - N/A   Clear
2:53 PM 100.0 °F 37.0 °F 11% 29.76 in 10.0 mi South 5.8 mph - N/A   Clear
3:53 PM 102.0 °F 36.0 °F 10% 29.74 in 10.0 mi ESE 10.4 mph - N/A   Clear
4:53 PM 104.0 °F 43.0 °F 13% 29.72 in 10.0 mi North 12.7 mph 18.4 mph N/A   Clear
5:53 PM 100.9 °F 46.9 °F 16% 29.71 in 10.0 mi NW 15.0 mph 18.4 mph N/A   Clear
6:53 PM 97.0 °F 48.9 °F 19% 29.72 in 10.0 mi NW 19.6 mph 27.6 mph N/A   Clear
7:53 PM 93.0 °F 48.0 °F 21% 29.74 in 10.0 mi NW 20.7 mph 28.8 mph N/A   Clear
8:53 PM 91.0 °F 46.9 °F 22% 29.75 in 10.0 mi NW 18.4 mph 26.5 mph N/A   Clear
9:53 PM 89.1 °F 46.9 °F 23% 29.76 in 10.0 mi NW 16.1 mph - N/A   Clear
10:53 PM 84.9 °F 46.0 °F 26% 29.78 in 10.0 mi NW 16.1 mph - N/A   Clear
11:53 PM 82.9 °F 44.1 °F 25% 29.78 in 10.0 mi NW 11.5 mph - N/A   Clear